Погода в Смоленске

Хотите узнать прогноз погоды в Смоленске? Тогда Вам сюда: Погода в Смоленске

Поиск расширенной информации на нашем сайте:

Полезная информация:

Новости сайта



02.01.2020
Опубликован Долгосрочный прогноз погоды по городам России и ближнего зарубежья на январь 2020 года.
Карты: Прогноз на январь и февраль 2020 года, Сравнение прогнозируемой аномалии приземной температуры воздуха на январь 2020 года по разным моделям.




Погода в Смоленске - сегодня

Время (UTC), дата Ветер
(°,м/с) 
Видим.   Явления Облачность Т
(°С)
Тd
(°С)
f(%) Тe
(°С)
Pmin
(гПа)
dP
(гПа)
Po
(мм)
O2
(г/м3)
Тmin Tmax R s Состояние
почвы
18 24.01.20 270 (З) 4000 м  слаб. дождь  10/10 300 м 
[Ns]
+1.8 +1.4 97 1005.7  -0.9  732  293    +2     
21 24.01.20 270 (З) 4000 м  слаб. дождь  10/10 200 м 
[Ns]
+2.6 +2.2 97 +1  1005.3  -0.2  732  292           
00 25.01.20 270 (З) 4000 м  слаб. дождь  10/10 200 м 
[Ns]
+2.6 +2.1 96 +1  1004.9  -0.2  732  292           
03 25.01.20 280 (З) 4000 м  слаб. дождь  10/10 200 м 
[Ns]
+2.5 +2.2 98 +2  1004.5  -0.4  731  292  +1.7       
06 25.01.20 270 (З) 4000 м  слаб. дождь  10/10 200 м 
[Frnb|Ns]
+2.4 +1.9 97 +1  1004  -0.5  731  292  +1.8    мокрый или
старый снег
10-40% 
09 25.01.20 270 (З) 4000 м  слаб. дождь  10/10 600 м 
[Sc]
+2.6 +1.9 95 +1  1003.9  731  291           
12 25.01.20 280 (З) 3-10{10}  4000 м  дымка{дождь}  9/9 600 м 
[Sc]
+3.1 +1.5 89 +2  1003.7  -0.2  731  291           
15 25.01.20 290 (З) 3{12}  10 км    9/8 300 м верхняя 
[St|Ci fib]
+2.1 -0.5 83 +1  1005.4  1.5  732  293         
18 25.01.20 290 (З) 10 км  {ливн. осадки}  9/3 600 м верхняя 
[Sc diur, vesp|Ci fib]
+1.2 -1.7 81 +1  1008.1  2.5  734  295    +3.3     
21 25.01.20 280 (З) 10 км    4/1 300 м верхняя 
[St|Ci fib]
+0.1 -2.3 84 -1  1010.6  2.3  736  297           
00 26.01.20 290 (З) 10 км    8/8 300 м 
[St]
-1.4 -2.6 92 -2  1013.2  2.3  737  299           
03 26.01.20 290 (З) 4000 м  дымка  6/6 300 м 
[St]
-2.3 -2.8 96 -2  1015.1  1.8  739  300  -2.3    0.6     
06 26.01.20 260 (З) 10 км    9/8 300 м верхняя 
[St|Ci sp]
-1.4 -2.9 89 -1  1015.9  0.9  739  300  -2.3      <0.5  равномерный
мокрый или
старый снег
100% 
09 26.01.20 260 (З) 10 км    10/6 600 м средняя 
[Sc|Ac trans]
+0.2 -2 85 -2  1016.2  0.4  740  298           
12 26.01.20 240 (ЮЗ) 10 км    10/10 600 м 
[Sc]
+1.1 -1.6 82 1014.9  -1.2  739  297           
15 26.01.20 240 (ЮЗ) 10 км    9/4 600 м средняя 
[Sc|Ac trans]
+1.8 -0.8 83 1013.5  -1.2  738  295           
18 26.01.20 260 (З) 10 км    10/0 средняя 
[Ac trans]
+1.9 -0 87 1013.6  0.1  738  295    +2.1       
21 26.01.20 260 (З) 10 км  {ливн. осадки}  10/8 300 м кучево-дожд., средняя 
[Cb cap|Ac trans]
+1.5 +0.3 92 +1  1013.9  0.2  738  296           
00 27.01.20 260 (З) 10 км  {ливн. осадки}  10/10 300 м 
[Sc]
+1.3 +0.4 94 +1  1014.3  0.4  738  296           
03 27.01.20 270 (З) 4000 м  дымка  10/10 600 м 
[Sc]
+1 -0.2 92 1014.4  738  296  +1    0.3     
06 27.01.20 260 (З) 4000 м  дымка  10/10 300 м кучево-дожд. 
[Cb cap]
+0.5 -0.5 93 1014.9  0.5  739  297  +0.5    0.3     
09 27.01.20 270 (З) 10 км    10/10 300 м кучево-дожд. 
[Cb cap]
+1.6 -0.8 84 +2  1014.9  0.1  739  296           
12 27.01.20 250 (З) 10 км  в посл. час ливневой снег  10/10 300 м кучево-дожд. 
[Cb cap]
+1.1 -1.3 84 +2  1013.9  -1  738  296           
15 27.01.20 190 (Ю) 4000 м  слаб. ливневой снег  10/10 300 м кучево-дожд. 
[Cb cap]
+0.1 -1.6 88 +1  1013.7  -0.3  738  297      0.4     
18 27.01.20 190 (Ю) 2000 м  слаб. ливневой снег  10/10 300 м кучево-дожд. 
[Cb cap]
-0.8 -1.2 97 1013.2  -0.6  737  298    +1.8     
Время (UTC), дата Ветер
(°,м/с) 
Видим.   Явления Облачность Т
(°С)
Тd
(°С)
f(%) Тe
(°С)
Pmin
(гПа)
dP
(гПа)
Po
(мм)
O2
(г/м3)
Тmin Tmax R s Состояние
почвы

Для получения пояснительной информации подведите курсор к названию столбца.

ПОГОДА в Смоленске - архив

Всё, что Вы хотите узнать о погоде в Смоленске - удобно и подробно!

Выберите нужную дату (начиная с 1 января 2019* года) и нажмите кнопку "Найти".
Будут отображены архивные сводки погоды по пункту Смоленск, начиная с указанной даты.


Отображать данные в формате CSV (для использования в таблицах Excel)


Внимание! Наш архив погоды предназначен исключительно для личного некоммерческого использования в познавательных целях. Если Вам необходимы официальные справки о состоянии погоды (для производственных, юридических, коммерческих и т.п. целей), обращайтесь в органы Росгидромета.

*Примечание: данная дата относится к архиву по метеостанциям СССР (Россия, СНГ, Балтия).
Архив по метеостанциям Зарубежной Европы и Азии (кроме Китая) хранится 10 дней, по другим регионам земного шара (Китай, Африка, Америка, Австралия, Океания) - 1 день.

Смоленск - район местоположения метеостанции


Название, широта, долгота, высота метеостанции:
Смоленск 54.8°ш. 32.1°д. 239 м над ур. моря [Российская Федерация]

Дополнительная информация

В oтличие oт бoльшинства пoгoдных сайтoв мы публикуем пoдрoбную метеoинфoрмацию в детальнoм прoфессиoнальнoм фoрмате.

Характеристики температуры и влажнoсти вoздуха измеряются на высoте 2 м в тени вдали oт зданий и деревьев.
Скoрoсть ветра измеряется на высoте 10 м (на урoвне рoста челoвека скoрoсть ветра ниже в 1.5-2 раза). Если метеoстанция нахoдится в гoрoде или в лесу, тo скoрoсть ветра занижена на 2-4 м/с пo сравнению с oткрытым местoм. Скoрoсть ветра над акватoриями крупных рек и oзёр, а также на вершинах хoлмoв на 2-5 м/с выше, чем в oбычных услoвиях.
Атмoсфернoе давление в разных тoчках местнoсти мoжет значительнo oтличаться oт давления на метеoстанции, в зависимoсти oт услoвий рельефа (при пoдъёме на 10 м давление пoнижается примернo на 1 мм рт.ст.).